Regional Weather Roundup
Issued by NWS

Home | Current Version | Previous Version | Text Only | Print | Product List | Glossary On
Versions: 1 2 3 4 5 6 7 8 9 10 11 12 13 14 15 16 17 18 19 20 21 22 23 24 25 26 27 28 29 30 31 32 33 34 35 36 37 38 39 40 41 42 43 44 45 46 47 48 49 50
000
ASUS43 KTOP 031759
RWRKS

WEATHER ROUNDUP FOR KANSAS
NATIONAL WEATHER SERVICE GOODLAND KS
1200 PM CST TUE MAR 03 2015

NOTE:  "FAIR" INDICATES FEW OR NO CLOUDS BELOW 12,000 FEET WITH NO
SIGNIFICANT WEATHER AND/OR OBSTRUCTIONS TO VISIBILITY.

KSZ001>006-013>018-027>032-041>047-031900-
NORTHWEST KANSAS

CITY           SKY/WX    TMP DP  RH WIND       PRES   REMARKS
GOODLAND       CLOUDY    28  19  69 N23G32    29.89R WCI  14
6HR MIN TEMP:  27; 6HR MAX TEMP:  33;

HAYS           CLOUDY    41  23  48 N22G28    29.88S
HILL CITY      CLOUDY    35  21  56 N21G30    29.93R WCI  24
6HR MIN TEMP:  30; 6HR MAX TEMP:  37;

RUSSELL        PTSUNNY   41  26  55 N21G28    29.85S
6HR MIN TEMP:  36; 6HR MAX TEMP:  43;

$$

KSZ061>065-074>080-084>089-031900-
SOUTHWEST KANSAS

CITY           SKY/WX    TMP DP  RH WIND       PRES   REMARKS
DODGE CITY     CLOUDY    40  29  64 N23G31    29.85S WCI  30
6HR MIN TEMP:  37; 6HR MAX TEMP:  43;

ELKHART          N/A     53  31  43 W7          N/A
GARDEN CITY    CLOUDY    38  29  70 N23G31    29.87R WCI  27
6HR MIN TEMP:  33; 6HR MAX TEMP:  42;

GREAT BEND     PTSUNNY   45  28  53 N21       29.87S
LIBERAL        CLOUDY    43  34  70 NE18      29.86R
$$

KSZ066>073-081>083-090>101-031900-
SOUTHEAST KANSAS

CITY           SKY/WX    TMP DP  RH WIND       PRES   REMARKS
CHANUTE        CLOUDY    48  42  80 SW15      29.84R
6HR MIN TEMP:  36; 6HR MAX TEMP:  48;

COFFEYVILLE    CLOUDY    47  42  83 SW12      29.88R
6HR MIN TEMP:  37; 6HR MAX TEMP:  47;

HUTCHINSON     PTSUNNY   46  30  53 N16G25    29.85R
6HR MIN TEMP:  38; 6HR MAX TEMP:  50;

NEWTON         CLOUDY    46  36  66 NW17G26   29.85R
PARSONS        CLOUDY    49  43  80 SW14G21   29.86S
6HR MIN TEMP:  37; 6HR MAX TEMP:  49;

WICHITA INTL   CLOUDY    50  39  66 W12       29.83F
6HR MIN TEMP:  36; 6HR MAX TEMP:  50;

WICHITA JABRA  CLOUDY    49  39  68 W12       29.83S
6HR MIN TEMP:  37; 6HR MAX TEMP:  49;

WINFIELD       CLOUDY    46  40  79 W8        29.85S
6HR MIN TEMP:  39; 6HR MAX TEMP:  46;

$$

KSZ007>012-019>026-033>040-048>060-102>105-031900-
NORTHEAST KANSAS

CITY           SKY/WX    TMP DP  RH WIND       PRES   REMARKS
CONCORDIA      CLOUDY    40  26  57 N20G29    29.86R WCI  30
6HR MIN TEMP:  34; 6HR MAX TEMP:  42;

EMPORIA        CLOUDY    48  37  65 W16G25    29.81R
6HR MIN TEMP:  37; 6HR MAX TEMP:  48;

LAWRENCE       CLOUDY    48  37  65 W12       29.79R
6HR MIN TEMP:  37; 6HR MAX TEMP:  49;

MANHATTAN      PTSUNNY   47  31  53 N12G18    29.85R
6HR MIN TEMP:  39; 6HR MAX TEMP:  47;

OLATHE IND     CLOUDY    46  39  76 W13       29.79R
6HR MIN TEMP:  37; 6HR MAX TEMP:  46;

OLATHE EXE     CLOUDY    46  40  79 W12       29.78R
6HR MIN TEMP:  36; 6HR MAX TEMP:  46;

SALINA         MOSUNNY   48  27  44 N23       29.86R
6HR MIN TEMP:  38; 6HR MAX TEMP:  48;

TOPEKA BILLARD CLOUDY    46  35  65 NW16G22   29.82R
6HR MIN TEMP:  38; 6HR MAX TEMP:  48;

TOPEKA FORBES  CLOUDY    49  36  61 NW16      29.80R
6HR MIN TEMP:  38; 6HR MAX TEMP:  49;

$$



USA.gov is the U.S. government's official web portal to all federal, state and local government web resources and services.